Regional Weather Roundup
Issued by NWS

Home | Current Version | Previous Version | Text Only | Print | Product List | Glossary On
Versions: 1 2 3 4 5 6 7 8 9 10 11 12 13 14 15 16 17 18 19 20 21 22 23 24 25 26 27 28 29 30 31 32 33 34 35 36 37 38 39 40 41 42 43 44 45 46 47 48 49 50
000
ASUS46 KSEW 180610
RWRWA

WASHINGTON REGIONAL WEATHER ROUNDUP
NATIONAL WEATHER SERVICE SEATTLE WA
1100 PM PDT WED SEP 17 2014

NOTE:"FAIR" INDICATES FEW OR NO CLOUDS BELOW 12,000 FEET WITH NO
SIGNIFICANT WEATHER AND/OR OBSTRUCTIONS TO VISIBILITY.

WAZ505-507>509-180700-
SEATTLE, TACOMA, EVERETT, AND VICINITY

CITY           SKY/WX    TMP DP  RH WIND       PRES   REMARKS
EVERETT        LGT RAIN  59  57  93 NE3       29.78F
6HR MIN TEMP:  59; 6HR MAX TEMP:  62; 6HR PCP:  0.14;

BOEING FIELD   CLOUDY    67  55  65 CALM      29.75F
6HR MIN TEMP:  65; 6HR MAX TEMP:  70; 6HR PCP: TRACE;

RENTON         CLOUDY    65  59  81 CALM      29.75S
6HR MIN TEMP:  65; 6HR MAX TEMP:  70;

SEATAC AIRPORT CLOUDY    65  55  70 NE8       29.76F
6HR MIN TEMP:  62; 6HR MAX TEMP:  69;

JBLM-MCCHORD   LGT RAIN  62  59  89 CALM      29.75F
6HR MIN TEMP:  62; 6HR MAX TEMP:  70; 6HR PCP: TRACE;

PUYALLUP       NOT AVBL
JBLM-FT LEWIS  CLOUDY    63  60  92 CALM      29.75F
6HR MIN TEMP:  63; 6HR MAX TEMP:  70; 6HR PCP:  0.02;

TACOMA NARROWS LGT RAIN  62  57  83 NE3       29.75F
6HR MIN TEMP:  62; 6HR MAX TEMP:  70; 6HR PCP: TRACE;

$$

WAZ001-503-506-510-514-515-180700-
NORTH INTERIOR

CITY           SKY/WX    TMP DP  RH WIND       PRES   REMARKS
BELLINGHAM     LGT RAIN  60  57  89 S3        29.75F
6HR MIN TEMP:  60; 6HR MAX TEMP:  68; 6HR PCP: TRACE;

FRIDAY HARBOR  LGT RAIN  55  54  96 CALM      29.76F
6HR MIN TEMP:  55; 6HR MAX TEMP:  66; 6HR PCP: TRACE;

EASTSOUND      CLOUDY    59  57  94 CALM      29.73F
PORT ANGELES   CLOUDY    59  57  93 CALM      29.75F
6HR MIN TEMP:  58; 6HR MAX TEMP:  65; 6HR PCP:  0.01;

NAS WHIDBEY    LGT RAIN  59  56  89 SE7       29.77S
6HR MIN TEMP:  57; 6HR MAX TEMP:  61; 6HR PCP:  0.12;

BURLINGTON     CLOUDY    59  57  94 CALM      29.77F
$$

WAZ020-022-039-040-504-511-512-180700-
SOUTHWEST INTERIOR

CITY           SKY/WX    TMP DP  RH WIND       PRES   REMARKS
SHELTON        LGT RAIN  60  58  92 CALM      29.72F
6HR MIN TEMP:  59; 6HR MAX TEMP:  71; 6HR PCP:  0.11;

OLYMPIA        LGT RAIN  61  59  93 SE5       29.77R
6HR MIN TEMP:  61; 6HR MAX TEMP:  70; 6HR PCP:  0.04;

CHEHALIS       DRIZZLE   63  63 100 CALM      29.76R
KELSO          CLOUDY    63  55  77 CALM      29.80R
6HR MIN TEMP:  61; 6HR MAX TEMP:  73;

VANCOUVER      CLOUDY    67  57  70 N3        29.73F
6HR MIN TEMP:  65; 6HR MAX TEMP:  76; 6HR PCP: TRACE;

SCAPPOOSE, OR  CLOUDY    65  56  72 NW3       29.74S
6HR MIN TEMP:  64; 6HR MAX TEMP:  76; 6HR PCP: TRACE;

PORTLAND, OR   CLOUDY    68  59  73 N3        29.74S
6HR MIN TEMP:  67; 6HR MAX TEMP:  77; 6HR PCP: TRACE;

$$

WAZ021-516-517-180700-
WASHINGTON COAST

CITY           SKY/WX    TMP DP  RH WIND       PRES   REMARKS
FORKS          LGT RAIN  58  58 100 CALM      29.74F FOG
6HR MIN TEMP:  58; 6HR MAX TEMP:  67; 6HR PCP:  0.01;

HOQUIAM        CLOUDY    60  59  96 E6        29.75R
6HR MIN TEMP:  59; 6HR MAX TEMP:  65; 6HR PCP:  0.20;

ASTORIA, OR    LGT RAIN  59  57  93 E5        29.76R
6HR MIN TEMP:  59; 6HR MAX TEMP:  61; 6HR PCP:  0.12;

$$

WAZ019-023-024-040-518-519-180700-
CASCADE MOUNTAINS AND COLUMBIA GORGE

CITY           SKY/WX    TMP DP  RH WIND       PRES   REMARKS
STAMPEDE PASS  NOT AVBL
TROUTDALE, OR  CLOUDY    65  58  78 SE5       29.73S
6HR MIN TEMP:  65; 6HR MAX TEMP:  76;

THE DALLES, OR CLOUDY    73  51  46 NW16      29.65F
6HR MIN TEMP:  72; 6HR MAX TEMP:  82;

$$

WAZ026-027-041>044-520-521-180700-
EAST SLOPES

CITY           SKY/WX    TMP DP  RH WIND       PRES   REMARKS
OMAK           CLOUDY    71  43  36 N10       29.63S
6HR MIN TEMP:  69; 6HR MAX TEMP:  85;

WENATCHEE      CLOUDY    76  42  29 NW9       29.62R
6HR MIN TEMP:  74; 6HR MAX TEMP:  82;

ELLENSBURG     CLOUDY    71  50  47 NW16G26   29.67R
6HR MIN TEMP:  68; 6HR MAX TEMP:  81;

YAKIMA         CLOUDY    64  49  57 CALM      29.65R
6HR MIN TEMP:  64; 6HR MAX TEMP:  81;

$$

WAZ028-034-035-180700-
COLUMBIA BASIN

CITY           SKY/WX    TMP DP  RH WIND       PRES   REMARKS
EPHRATA        CLOUDY    66  34  30 CALM      29.61R
6HR MIN TEMP:  66; 6HR MAX TEMP:  83;

MOSES LAKE     MOCLDY    67  47  48 S6        29.62R
6HR MIN TEMP:  67; 6HR MAX TEMP:  84;

PASCO          CLOUDY    64  58  80 NW5       29.60S
6HR MIN TEMP:  63; 6HR MAX TEMP:  84;

HERMISTON, OR  MOCLDY    71  45  39 SW9       29.62R
6HR MIN TEMP:  63; 6HR MAX TEMP:  85;

$$

WAZ036>038-180700-
NORTHEAST WASHINGTON

CITY           SKY/WX    TMP DP  RH WIND       PRES   REMARKS
SPOKANE GEIGER CLOUDY    68  41  37 S7        29.67F
6HR MIN TEMP:  67; 6HR MAX TEMP:  83;

SPOKANE FELTS  CLOUDY    62  45  53 NE3       29.66F
6HR MIN TEMP:  62; 6HR MAX TEMP:  84;

FAIRCHILD AFB  CLOUDY    65  40  38 S7        29.68F
6HR MIN TEMP:  65; 6HR MAX TEMP:  82;

COEURDALENE,ID MOCLDY    61  50  67 E5        29.68F
6HR MIN TEMP:  61; 6HR MAX TEMP:  82;

DEER PARK      CLOUDY    62  46  55 NE3       29.67F
6HR MIN TEMP:  62; 6HR MAX TEMP:  83;

$$

WAZ029>033-180700-
SOUTHEAST WASHINGTON

CITY           SKY/WX    TMP DP  RH WIND       PRES   REMARKS
PULLMAN        PTCLDY    60  35  39 NE5       29.71F
6HR MIN TEMP:  56; 6HR MAX TEMP:  85;

LEWISTON, ID   MOCLDY    69  41  36 SE5       29.64S
6HR MIN TEMP:  69; 6HR MAX TEMP:  85;

WALLA WALLA    CLOUDY    72  39  30 E5        29.62F
6HR MIN TEMP:  69; 6HR MAX TEMP:  85;

PENDLETON, OR  PTCLDY    66  38  35 S8        29.64S
6HR MIN TEMP:  66; 6HR MAX TEMP:  86;

$$


USA.gov is the U.S. government's official web portal to all federal, state and local government web resources and services.